Time,TemperatureF,DewpointF,PressureIn,WindDirection,WindDirectionDegrees,WindSpeedMPH,WindSpeedGustMPH,Humidity,HourlyPrecipIn,Conditions,Clouds,dailyrainin,SoftwareType,DateUTC
2013-09-19 00:00:00,74.1,70.3,29.92,South,169,6.0,6.0,88,0.00,,,0.00,Wunderground v.1.15,2013-09-19 05:00:00,
2013-09-19 00:06:00,74.0,70.2,29.92,SSE,165,5.0,7.0,88,0.00,,,0.00,Wunderground v.1.15,2013-09-19 05:06:00,
2013-09-19 00:12:00,73.9,70.1,29.92,SE,128,6.0,8.0,88,0.00,,,0.00,Wunderground v.1.15,2013-09-19 05:12:00,
2013-09-19 00:18:00,73.9,70.1,29.92,SSE,158,7.0,8.0,88,0.00,,,0.00,Wunderground v.1.15,2013-09-19 05:18:00,
2013-09-19 00:24:00,73.8,70.4,29.91,SE,138,6.0,8.0,89,0.00,,,0.00,Wunderground v.1.15,2013-09-19 05:24:00,
2013-09-19 00:30:00,73.7,70.3,29.91,SE,131,6.0,6.0,89,0.00,,,0.00,Wunderground v.1.15,2013-09-19 05:30:00,
2013-09-19 00:36:00,73.7,70.3,29.91,SSE,147,6.0,10.0,89,0.00,,,0.00,Wunderground v.1.15,2013-09-19 05:36:00,
2013-09-19 00:42:00,73.6,70.2,29.91,South,169,6.0,7.0,89,0.00,,,0.00,Wunderground v.1.15,2013-09-19 05:42:00,
2013-09-19 00:48:00,73.6,70.2,29.91,SSE,159,6.0,7.0,89,0.00,,,0.00,Wunderground v.1.15,2013-09-19 05:48:00,
2013-09-19 00:54:00,73.4,70.0,29.91,SE,145,6.0,7.0,89,0.00,,,0.00,Wunderground v.1.15,2013-09-19 05:54:00,
2013-09-19 01:00:00,73.3,70.2,29.91,SE,143,6.0,6.0,90,0.00,,,0.00,Wunderground v.1.15,2013-09-19 06:00:00,
2013-09-19 01:06:00,73.3,70.2,29.91,SE,136,6.0,9.0,90,0.00,,,0.00,Wunderground v.1.15,2013-09-19 06:06:00,
2013-09-19 01:12:00,73.3,70.2,29.91,South,170,7.0,7.0,90,0.00,,,0.00,Wunderground v.1.15,2013-09-19 06:12:00,
2013-09-19 01:18:00,73.1,70.0,29.91,SE,126,6.0,7.0,90,0.00,,,0.00,Wunderground v.1.15,2013-09-19 06:18:00,
2013-09-19 01:24:00,73.1,70.0,29.91,SE,127,7.0,12.0,90,0.00,,,0.00,Wunderground v.1.15,2013-09-19 06:24:00,
2013-09-19 01:30:00,73.2,70.1,29.91,SSE,162,7.0,7.0,90,0.00,,,0.00,Wunderground v.1.15,2013-09-19 06:30:00,
2013-09-19 01:36:00,73.1,70.0,29.91,SE,145,6.0,7.0,90,0.00,,,0.00,Wunderground v.1.15,2013-09-19 06:36:00,
2013-09-19 01:42:00,73.1,70.3,29.90,SSE,165,6.0,8.0,91,0.00,,,0.00,Wunderground v.1.15,2013-09-19 06:42:00,
2013-09-19 01:48:00,73.0,70.2,29.90,SSE,167,5.0,8.0,91,0.00,,,0.00,Wunderground v.1.15,2013-09-19 06:48:00,
2013-09-19 01:54:00,72.9,70.1,29.90,SE,145,5.0,8.0,91,0.00,,,0.00,Wunderground v.1.15,2013-09-19 06:54:00,
2013-09-19 02:00:00,72.8,70.0,29.90,South,177,4.0,7.0,91,0.00,,,0.00,Wunderground v.1.15,2013-09-19 07:00:00,
2013-09-19 02:06:00,72.7,69.9,29.89,SSE,167,4.0,7.0,91,0.00,,,0.00,Wunderground v.1.15,2013-09-19 07:06:00,
2013-09-19 02:12:00,72.6,70.1,29.89,SE,138,6.0,6.0,92,0.00,,,0.00,Wunderground v.1.15,2013-09-19 07:12:00,
2013-09-19 02:18:00,72.7,70.2,29.89,SSW,193,6.0,8.0,92,0.00,,,0.00,Wunderground v.1.15,2013-09-19 07:18:00,
2013-09-19 02:24:00,72.6,70.5,29.89,South,176,6.0,7.0,93,0.00,,,0.00,Wunderground v.1.15,2013-09-19 07:24:00,
2013-09-19 02:30:00,72.6,70.8,29.89,SE,146,7.0,7.0,94,0.00,,,0.00,Wunderground v.1.15,2013-09-19 07:30:00,
2013-09-19 02:36:00,72.7,70.9,29.89,SE,130,6.0,7.0,94,0.00,,,0.00,Wunderground v.1.15,2013-09-19 07:36:00,
2013-09-19 02:42:00,72.7,70.9,29.89,SSE,150,6.0,7.0,94,0.00,,,0.00,Wunderground v.1.15,2013-09-19 07:42:00,
2013-09-19 02:48:00,72.8,71.0,29.89,South,187,6.0,7.0,94,0.00,,,0.00,Wunderground v.1.15,2013-09-19 07:48:00,
2013-09-19 02:54:00,72.9,71.1,29.89,SSE,164,6.0,9.0,94,0.00,,,0.00,Wunderground v.1.15,2013-09-19 07:54:00,
2013-09-19 03:00:00,72.8,71.3,29.89,SSE,148,6.0,7.0,95,0.00,,,0.00,Wunderground v.1.15,2013-09-19 08:00:00,
2013-09-19 03:06:00,72.8,71.3,29.89,South,186,6.0,7.0,95,0.00,,,0.00,Wunderground v.1.15,2013-09-19 08:06:00,
2013-09-19 03:12:00,72.7,71.2,29.89,South,183,5.0,7.0,95,0.00,,,0.00,Wunderground v.1.15,2013-09-19 08:12:00,
2013-09-19 03:18:00,72.7,71.2,29.89,SSE,162,4.0,7.0,95,0.00,,,0.00,Wunderground v.1.15,2013-09-19 08:18:00,
2013-09-19 03:24:00,72.8,71.3,29.89,SSE,154,4.0,7.0,95,0.00,,,0.00,Wunderground v.1.15,2013-09-19 08:24:00,
2013-09-19 03:30:00,72.8,71.3,29.89,SSE,148,4.0,7.0,95,0.00,,,0.00,Wunderground v.1.15,2013-09-19 08:30:00,
2013-09-19 03:36:00,72.8,71.3,29.89,SSE,167,5.0,7.0,95,0.00,,,0.00,Wunderground v.1.15,2013-09-19 08:36:00,
2013-09-19 03:42:00,72.9,71.4,29.89,SSW,207,5.0,6.0,95,0.00,,,0.00,Wunderground v.1.15,2013-09-19 08:42:00,
2013-09-19 03:48:00,72.9,71.4,29.88,SSE,167,5.0,7.0,95,0.00,,,0.00,Wunderground v.1.15,2013-09-19 08:48:00,
2013-09-19 03:54:00,73.0,71.5,29.88,SSE,158,5.0,7.0,95,0.00,,,0.00,Wunderground v.1.15,2013-09-19 08:54:00,
2013-09-19 04:00:00,73.1,71.6,29.88,SSE,148,5.0,7.0,95,0.00,,,0.00,Wunderground v.1.15,2013-09-19 09:00:00,
2013-09-19 04:06:00,73.1,71.6,29.88,South,184,5.0,7.0,95,0.00,,,0.00,Wunderground v.1.15,2013-09-19 09:06:00,
2013-09-19 04:12:00,73.1,71.6,29.88,SSE,159,3.0,7.0,95,0.00,,,0.00,Wunderground v.1.15,2013-09-19 09:12:00,
2013-09-19 04:18:00,73.2,72.0,29.88,SSE,162,4.0,7.0,96,0.00,,,0.00,Wunderground v.1.15,2013-09-19 09:18:00,
2013-09-19 04:24:00,73.2,72.0,29.88,South,170,4.0,7.0,96,0.00,,,0.00,Wunderground v.1.15,2013-09-19 09:24:00,
2013-09-19 04:30:00,73.2,72.0,29.88,South,176,3.0,7.0,96,0.00,,,0.00,Wunderground v.1.15,2013-09-19 09:30:00,
2013-09-19 04:36:00,73.2,72.0,29.88,SSE,153,4.0,7.0,96,0.00,,,0.00,Wunderground v.1.15,2013-09-19 09:36:00,
2013-09-19 04:42:00,73.1,71.9,29.88,SSE,150,5.0,7.0,96,0.00,,,0.00,Wunderground v.1.15,2013-09-19 09:42:00,
2013-09-19 04:48:00,73.1,71.9,29.88,SE,134,4.0,7.0,96,0.00,,,0.00,Wunderground v.1.15,2013-09-19 09:48:00,
2013-09-19 04:54:00,73.0,71.8,29.88,SSE,148,4.0,7.0,96,0.00,,,0.00,Wunderground v.1.15,2013-09-19 09:54:00,
2013-09-19 05:00:00,72.9,71.7,29.88,SSE,158,4.0,4.0,96,0.00,,,0.00,Wunderground v.1.15,2013-09-19 10:00:00,
2013-09-19 05:06:00,72.9,71.7,29.88,SSE,156,4.0,7.0,96,0.00,,,0.00,Wunderground v.1.15,2013-09-19 10:06:00,
2013-09-19 05:12:00,72.9,71.7,29.88,SE,143,4.0,5.0,96,0.00,,,0.00,Wunderground v.1.15,2013-09-19 10:12:00,
2013-09-19 05:18:00,72.9,71.7,29.88,SSE,162,4.0,7.0,96,0.00,,,0.00,Wunderground v.1.15,2013-09-19 10:18:00,
2013-09-19 05:24:00,72.9,71.7,29.88,SE,135,4.0,7.0,96,0.00,,,0.00,Wunderground v.1.15,2013-09-19 10:24:00,
2013-09-19 05:30:00,72.8,71.6,29.88,SSE,159,5.0,7.0,96,0.00,,,0.00,Wunderground v.1.15,2013-09-19 10:30:00,
2013-09-19 05:36:00,72.8,71.9,29.88,ESE,122,5.0,7.0,97,0.00,,,0.00,Wunderground v.1.15,2013-09-19 10:36:00,
2013-09-19 05:42:00,72.7,71.8,29.88,SSE,157,6.0,7.0,97,0.00,,,0.00,Wunderground v.1.15,2013-09-19 10:42:00,
2013-09-19 05:48:00,72.7,71.8,29.88,SE,143,5.0,7.0,97,0.00,,,0.00,Wunderground v.1.15,2013-09-19 10:48:00,
2013-09-19 05:54:00,72.7,71.5,29.88,SE,129,4.0,7.0,96,0.00,,,0.00,Wunderground v.1.15,2013-09-19 10:54:00,
2013-09-19 06:00:00,72.7,71.8,29.88,SSE,162,4.0,4.0,97,0.00,,,0.00,Wunderground v.1.15,2013-09-19 11:00:00,
2013-09-19 06:06:00,72.7,71.8,29.88,South,183,4.0,4.0,97,0.00,,,0.00,Wunderground v.1.15,2013-09-19 11:06:00,
2013-09-19 06:12:00,72.6,71.7,29.88,SE,135,4.0,4.0,97,0.00,,,0.00,Wunderground v.1.15,2013-09-19 11:12:00,
2013-09-19 06:18:00,72.6,71.7,29.88,SSE,148,4.0,5.0,97,0.00,,,0.00,Wunderground v.1.15,2013-09-19 11:18:00,
2013-09-19 06:24:00,72.5,71.6,29.88,SE,129,3.0,4.0,97,0.00,,,0.00,Wunderground v.1.15,2013-09-19 11:24:00,
2013-09-19 06:30:00,72.5,71.6,29.88,SE,138,3.0,5.0,97,0.00,,,0.00,Wunderground v.1.15,2013-09-19 11:30:00,
2013-09-19 06:36:00,72.5,71.6,29.88,SE,145,4.0,5.0,97,0.00,,,0.00,Wunderground v.1.15,2013-09-19 11:36:00,
2013-09-19 06:42:00,72.5,71.6,29.88,SSE,152,3.0,4.0,97,0.00,,,0.00,Wunderground v.1.15,2013-09-19 11:42:00,
2013-09-19 06:48:00,72.5,71.6,29.89,SE,127,2.0,4.0,97,0.00,,,0.00,Wunderground v.1.15,2013-09-19 11:48:00,
2013-09-19 06:54:00,72.6,71.7,29.89,SE,143,2.0,4.0,97,0.00,,,0.00,Wunderground v.1.15,2013-09-19 11:54:00,
2013-09-19 07:00:00,72.5,71.6,29.89,SE,126,2.0,7.0,97,0.00,,,0.00,Wunderground v.1.15,2013-09-19 12:00:00,
2013-09-19 07:06:00,72.5,71.6,29.89,SE,134,2.0,7.0,97,0.00,,,0.00,Wunderground v.1.15,2013-09-19 12:06:00,
2013-09-19 07:12:00,72.4,71.5,29.89,SE,129,1.0,7.0,97,0.00,,,0.00,Wunderground v.1.15,2013-09-19 12:12:00,
2013-09-19 07:18:00,72.5,71.6,29.89,SE,124,2.0,7.0,97,0.00,,,0.00,Wunderground v.1.15,2013-09-19 12:18:00,
2013-09-19 07:24:00,72.4,71.5,29.89,SE,146,2.0,7.0,97,0.00,,,0.00,Wunderground v.1.15,2013-09-19 12:24:00,
2013-09-19 07:30:00,72.4,71.5,29.89,SE,124,2.0,2.0,97,0.00,,,0.00,Wunderground v.1.15,2013-09-19 12:30:00,
2013-09-19 07:38:00,72.4,71.5,29.89,SE,132,2.0,2.0,97,0.00,,,0.00,Wunderground v.1.15,2013-09-19 12:38:00,
2013-09-19 07:44:00,72.4,71.8,29.90,SE,132,3.0,3.0,98,0.00,,,0.00,Wunderground v.1.15,2013-09-19 12:44:00,
2013-09-19 07:50:00,72.4,71.8,29.90,SSE,147,2.0,3.0,98,0.00,,,0.00,Wunderground v.1.15,2013-09-19 12:50:00,
2013-09-19 07:56:00,72.4,71.8,29.90,SE,131,2.0,3.0,98,0.00,,,0.00,Wunderground v.1.15,2013-09-19 12:56:00,
2013-09-19 08:02:00,72.4,71.8,29.90,SSE,148,2.0,2.0,98,0.00,,,0.00,Wunderground v.1.15,2013-09-19 13:02:00,
2013-09-19 08:08:00,72.4,71.8,29.90,ESE,120,3.0,5.0,98,0.00,,,0.00,Wunderground v.1.15,2013-09-19 13:08:00,
2013-09-19 08:14:00,72.3,71.7,29.90,ESE,114,3.0,4.0,98,0.00,,,0.00,Wunderground v.1.15,2013-09-19 13:14:00,
2013-09-19 08:20:00,72.4,71.8,29.90,SE,132,2.0,5.0,98,0.00,,,0.00,Wunderground v.1.15,2013-09-19 13:20:00,
2013-09-19 08:26:00,72.4,71.8,29.90,SE,129,3.0,5.0,98,0.00,,,0.00,Wunderground v.1.15,2013-09-19 13:26:00,
2013-09-19 08:32:00,72.4,71.8,29.90,ESE,122,3.0,6.0,98,0.00,,,0.00,Wunderground v.1.15,2013-09-19 13:32:00,
2013-09-19 08:38:00,72.3,71.7,29.90,SE,143,3.0,6.0,98,0.00,,,0.00,Wunderground v.1.15,2013-09-19 13:38:00,
2013-09-19 08:44:00,72.3,71.7,29.91,SE,129,3.0,6.0,98,0.00,,,0.00,Wunderground v.1.15,2013-09-19 13:44:00,
2013-09-19 08:50:00,72.4,71.8,29.91,SSE,162,3.0,6.0,98,0.00,,,0.00,Wunderground v.1.15,2013-09-19 13:50:00,
2013-09-19 08:56:00,72.6,72.0,29.91,SE,136,3.0,6.0,98,0.00,,,0.00,Wunderground v.1.15,2013-09-19 13:56:00,
2013-09-19 09:02:00,72.6,72.0,29.91,ESE,123,3.0,6.0,98,0.00,,,0.00,Wunderground v.1.15,2013-09-19 14:02:00,
2013-09-19 09:08:00,72.7,72.1,29.91,SE,128,3.0,7.0,98,0.00,,,0.00,Wunderground v.1.15,2013-09-19 14:08:00,
2013-09-19 09:14:00,72.9,72.3,29.91,ESE,115,3.0,6.0,98,0.00,,,0.00,Wunderground v.1.15,2013-09-19 14:14:00,
2013-09-19 09:20:00,73.1,72.2,29.91,ESE,120,3.0,3.0,97,0.00,,,0.00,Wunderground v.1.15,2013-09-19 14:20:00,
2013-09-19 09:26:00,73.3,72.4,29.91,SE,124,3.0,6.0,97,0.00,,,0.00,Wunderground v.1.15,2013-09-19 14:26:00,
2013-09-19 09:32:00,73.5,72.6,29.91,SE,131,3.0,6.0,97,0.00,,,0.00,Wunderground v.1.15,2013-09-19 14:32:00,
2013-09-19 09:38:00,73.7,72.5,29.91,ESE,120,2.0,6.0,96,0.00,,,0.00,Wunderground v.1.15,2013-09-19 14:38:00,
2013-09-19 09:46:00,74.0,72.5,29.91,SE,135,4.0,6.0,95,0.00,,,0.00,Wunderground v.1.15,2013-09-19 14:46:00,
2013-09-19 09:52:00,74.3,72.8,29.92,SSE,163,3.0,6.0,95,0.00,,,0.00,Wunderground v.1.15,2013-09-19 14:52:00,
2013-09-19 09:58:00,74.6,72.8,29.92,SSE,148,2.0,6.0,94,0.00,,,0.00,Wunderground v.1.15,2013-09-19 14:58:00,
2013-09-19 10:04:00,74.9,73.1,29.91,SE,136,2.0,6.0,94,0.00,,,0.00,Wunderground v.1.15,2013-09-19 15:04:00,
2013-09-19 10:10:00,75.1,72.9,29.92,ESE,120,3.0,6.0,93,0.00,,,0.00,Wunderground v.1.15,2013-09-19 15:10:00,
2013-09-19 10:16:00,75.3,72.8,29.92,SE,145,4.0,6.0,92,0.00,,,0.00,Wunderground v.1.15,2013-09-19 15:16:00,
2013-09-19 10:22:00,75.5,73.0,29.92,SE,125,4.0,5.0,92,0.00,,,0.00,Wunderground v.1.15,2013-09-19 15:22:00,
2013-09-19 10:28:00,76.1,73.3,29.92,ESE,116,3.0,6.0,91,0.00,,,0.00,Wunderground v.1.15,2013-09-19 15:28:00,
2013-09-19 10:34:00,76.1,73.0,29.92,SE,141,3.0,6.0,90,0.00,,,0.00,Wunderground v.1.15,2013-09-19 15:34:00,
2013-09-19 10:40:00,75.9,72.8,29.92,SE,139,4.0,6.0,90,0.00,,,0.00,Wunderground v.1.15,2013-09-19 15:40:00,
2013-09-19 10:46:00,75.8,73.0,29.92,East,86,4.0,6.0,91,0.00,,,0.00,Wunderground v.1.15,2013-09-19 15:46:00,
2013-09-19 10:52:00,75.3,72.5,29.92,SE,131,3.0,6.0,91,0.00,,,0.00,Wunderground v.1.15,2013-09-19 15:52:00,
2013-09-19 10:58:00,74.9,72.7,29.92,SE,138,3.0,6.0,93,0.00,,,0.00,Wunderground v.1.15,2013-09-19 15:58:00,
2013-09-19 11:04:00,75.0,72.8,29.92,SE,134,3.0,6.0,93,0.00,,,0.00,Wunderground v.1.15,2013-09-19 16:04:00,
2013-09-19 11:10:00,75.8,73.3,29.92,SSE,149,3.0,6.0,92,0.00,,,0.00,Wunderground v.1.15,2013-09-19 16:10:00,
2013-09-19 11:16:00,76.6,73.4,29.92,SE,144,3.0,6.0,90,0.00,,,0.00,Wunderground v.1.15,2013-09-19 16:16:00,
2013-09-19 11:22:00,77.0,73.5,29.92,ESE,120,3.0,4.0,89,0.00,,,0.00,Wunderground v.1.15,2013-09-19 16:22:00,
2013-09-19 11:28:00,77.4,73.6,29.92,East,99,3.0,6.0,88,0.00,,,0.00,Wunderground v.1.15,2013-09-19 16:28:00,
2013-09-19 11:34:00,77.7,73.2,29.92,SE,139,4.0,6.0,86,0.00,,,0.00,Wunderground v.1.15,2013-09-19 16:34:00,
2013-09-19 11:40:00,77.6,73.1,29.92,SE,124,4.0,7.0,86,0.00,,,0.00,Wunderground v.1.15,2013-09-19 16:40:00,
2013-09-19 11:46:00,77.9,72.7,29.91,SE,134,4.0,7.0,84,0.00,,,0.00,Wunderground v.1.15,2013-09-19 16:46:00,
2013-09-19 11:52:00,78.3,73.4,29.91,SE,126,4.0,6.0,85,0.00,,,0.00,Wunderground v.1.15,2013-09-19 16:52:00,
2013-09-19 11:58:00,78.4,72.8,29.91,SE,128,5.0,7.0,83,0.00,,,0.00,Wunderground v.1.15,2013-09-19 16:58:00,
2013-09-19 12:04:00,78.9,73.7,29.91,South,184,7.0,8.0,84,0.00,,,0.00,Wunderground v.1.15,2013-09-19 17:04:00,
2013-09-19 12:10:00,79.0,73.4,29.91,ESE,121,6.0,9.0,83,0.00,,,0.00,Wunderground v.1.15,2013-09-19 17:10:00,
2013-09-19 12:16:00,78.7,73.5,29.91,SE,131,6.0,10.0,84,0.00,,,0.00,Wunderground v.1.15,2013-09-19 17:16:00,
2013-09-19 12:22:00,79.0,73.4,29.91,ESE,114,7.0,10.0,83,0.00,,,0.00,Wunderground v.1.15,2013-09-19 17:22:00,
2013-09-19 12:28:00,79.2,74.3,29.90,SE,125,6.0,10.0,85,0.00,,,0.00,Wunderground v.1.15,2013-09-19 17:28:00,
2013-09-19 12:34:00,79.6,74.0,29.90,SE,141,4.0,6.0,83,0.00,,,0.00,Wunderground v.1.15,2013-09-19 17:34:00,
2013-09-19 12:40:00,79.9,73.5,29.90,SE,131,5.0,6.0,81,0.00,,,0.00,Wunderground v.1.15,2013-09-19 17:40:00,
2013-09-19 12:46:00,80.0,73.3,29.90,ESE,121,6.0,11.0,80,0.00,,,0.00,Wunderground v.1.15,2013-09-19 17:46:00,
2013-09-19 12:52:00,79.6,73.3,29.90,SE,146,7.0,7.0,81,0.00,,,0.00,Wunderground v.1.15,2013-09-19 17:52:00,
2013-09-19 12:58:00,79.7,73.0,29.89,SSE,158,7.0,8.0,80,0.00,,,0.00,Wunderground v.1.15,2013-09-19 17:58:00,
2013-09-19 13:04:00,79.9,73.2,29.89,SE,141,6.0,6.0,80,0.00,,,0.00,Wunderground v.1.15,2013-09-19 18:04:00,
2013-09-19 13:10:00,80.1,73.0,29.89,SSE,158,5.0,5.0,79,0.00,,,0.00,Wunderground v.1.15,2013-09-19 18:10:00,
2013-09-19 13:16:00,80.3,73.2,29.89,SSE,153,5.0,7.0,79,0.00,,,0.00,Wunderground v.1.15,2013-09-19 18:16:00,
2013-09-19 13:22:00,80.5,73.0,29.89,SE,136,6.0,8.0,78,0.00,,,0.00,Wunderground v.1.15,2013-09-19 18:22:00,
2013-09-19 13:28:00,81.8,73.9,29.88,SE,131,6.0,8.0,77,0.00,,,0.00,Wunderground v.1.15,2013-09-19 18:28:00,
2013-09-19 13:34:00,82.5,73.4,29.87,SE,131,6.0,9.0,74,0.00,,,0.00,Wunderground v.1.15,2013-09-19 18:34:00,
2013-09-19 13:40:00,83.1,73.5,29.87,SSW,212,7.0,7.0,73,0.00,,,0.00,Wunderground v.1.15,2013-09-19 18:40:00,
2013-09-19 13:46:00,82.9,73.4,29.87,SSE,167,7.0,7.0,73,0.00,,,0.00,Wunderground v.1.15,2013-09-19 18:46:00,
2013-09-19 13:52:00,82.6,73.1,29.86,SE,131,7.0,7.0,73,0.00,,,0.00,Wunderground v.1.15,2013-09-19 18:52:00,
2013-09-19 13:58:00,82.8,72.8,29.86,SSE,158,7.0,9.0,72,0.00,,,0.00,Wunderground v.1.15,2013-09-19 18:58:00,
2013-09-19 14:04:00,83.1,73.1,29.86,ESE,115,7.0,7.0,72,0.00,,,0.00,Wunderground v.1.15,2013-09-19 19:04:00,
2013-09-19 14:10:00,83.4,73.0,29.85,SSE,149,7.0,7.0,71,0.00,,,0.00,Wunderground v.1.15,2013-09-19 19:10:00,
2013-09-19 14:16:00,83.9,73.1,29.85,South,187,6.0,7.0,70,0.00,,,0.00,Wunderground v.1.15,2013-09-19 19:16:00,
2013-09-19 14:22:00,84.1,72.0,29.85,SSE,148,7.0,7.0,67,0.00,,,0.00,Wunderground v.1.15,2013-09-19 19:22:00,
2013-09-19 14:28:00,84.5,71.9,29.85,SE,138,7.0,9.0,66,0.00,,,0.00,Wunderground v.1.15,2013-09-19 19:28:00,
2013-09-19 14:34:00,84.6,72.9,29.84,SW,214,8.0,8.0,68,0.00,,,0.00,Wunderground v.1.15,2013-09-19 19:34:00,
2013-09-19 14:40:00,85.4,72.3,29.83,SE,140,7.0,7.0,65,0.00,,,0.00,Wunderground v.1.15,2013-09-19 19:40:00,
2013-09-19 14:46:00,85.3,72.2,29.83,SE,127,6.0,8.0,65,0.00,,,0.00,Wunderground v.1.15,2013-09-19 19:46:00,
2013-09-19 14:52:00,85.8,72.2,29.83,ESE,120,5.0,7.0,64,0.00,,,0.00,Wunderground v.1.15,2013-09-19 19:52:00,
2013-09-19 14:58:00,84.8,71.7,29.83,East,101,5.0,8.0,65,0.00,,,0.00,Wunderground v.1.15,2013-09-19 19:58:00,
2013-09-19 15:04:00,84.1,71.1,29.83,ESE,113,6.0,9.0,65,0.00,,,0.00,Wunderground v.1.15,2013-09-19 20:04:00,
2013-09-19 15:10:00,83.9,71.3,29.82,SSE,150,6.0,6.0,66,0.00,,,0.00,Wunderground v.1.15,2013-09-19 20:10:00,
2013-09-19 15:16:00,84.8,72.2,29.82,SE,124,6.0,13.0,66,0.00,,,0.00,Wunderground v.1.15,2013-09-19 20:16:00,
2013-09-19 15:22:00,84.7,72.1,29.82,ESE,110,5.0,6.0,66,0.00,,,0.00,Wunderground v.1.15,2013-09-19 20:22:00,
2013-09-19 15:28:00,84.3,71.2,29.82,SE,132,5.0,8.0,65,0.00,,,0.00,Wunderground v.1.15,2013-09-19 20:28:00,
2013-09-19 15:34:00,84.2,71.6,29.82,South,169,6.0,6.0,66,0.00,,,0.00,Wunderground v.1.15,2013-09-19 20:34:00,
2013-09-19 15:40:00,83.8,71.7,29.82,SSE,166,7.0,17.0,67,0.00,,,0.00,Wunderground v.1.15,2013-09-19 20:40:00,
2013-09-19 15:46:00,79.5,73.5,29.82,SSE,148,11.0,17.0,82,0.00,,,0.01,Wunderground v.1.15,2013-09-19 20:46:00,
2013-09-19 15:52:00,77.5,73.3,29.82,SSW,207,9.0,11.0,87,0.00,,,0.01,Wunderground v.1.15,2013-09-19 20:52:00,
2013-09-19 15:58:00,77.0,73.2,29.82,SE,143,6.0,11.0,88,0.00,,,0.01,Wunderground v.1.15,2013-09-19 20:58:00,
2013-09-19 16:04:00,78.0,73.5,29.82,SE,132,5.0,7.0,86,0.00,,,0.01,Wunderground v.1.15,2013-09-19 21:04:00,
2013-09-19 16:10:00,78.6,74.1,29.81,South,173,6.0,7.0,86,0.00,,,0.01,Wunderground v.1.15,2013-09-19 21:10:00,
2013-09-19 16:16:00,78.9,74.4,29.81,SSW,203,6.0,9.0,86,0.00,,,0.01,Wunderground v.1.15,2013-09-19 21:16:00,
2013-09-19 16:22:00,79.3,74.4,29.81,South,169,7.0,9.0,85,0.00,,,0.01,Wunderground v.1.15,2013-09-19 21:22:00,
2013-09-19 16:28:00,79.6,74.3,29.81,South,172,7.0,11.0,84,0.00,,,0.01,Wunderground v.1.15,2013-09-19 21:28:00,
2013-09-19 16:34:00,80.1,74.5,29.81,SSE,167,6.0,7.0,83,0.00,,,0.01,Wunderground v.1.15,2013-09-19 21:34:00,
2013-09-19 16:40:00,80.4,74.4,29.81,South,172,5.0,6.0,82,0.00,,,0.01,Wunderground v.1.15,2013-09-19 21:40:00,
2013-09-19 16:46:00,81.2,72.9,29.80,SSW,193,5.0,6.0,76,0.00,,,0.01,Wunderground v.1.15,2013-09-19 21:46:00,
2013-09-19 16:52:00,82.2,73.1,29.80,South,183,5.0,11.0,74,0.00,,,0.01,Wunderground v.1.15,2013-09-19 21:52:00,
2013-09-19 16:58:00,83.2,72.8,29.80,SSE,162,6.0,11.0,71,0.00,,,0.01,Wunderground v.1.15,2013-09-19 21:58:00,
2013-09-19 17:04:00,83.5,72.7,29.79,SE,143,7.0,7.0,70,0.00,,,0.01,Wunderground v.1.15,2013-09-19 22:04:00,
2013-09-19 17:10:00,83.6,71.9,29.79,SSE,150,7.0,7.0,68,0.00,,,0.01,Wunderground v.1.15,2013-09-19 22:10:00,
2013-09-19 17:16:00,83.8,72.1,29.79,SSE,163,7.0,9.0,68,0.00,,,0.01,Wunderground v.1.15,2013-09-19 22:16:00,
2013-09-19 17:22:00,84.0,72.3,29.79,SE,129,5.0,8.0,68,0.00,,,0.01,Wunderground v.1.15,2013-09-19 22:22:00,
2013-09-19 17:28:00,84.2,72.5,29.79,SE,134,4.0,8.0,68,0.00,,,0.01,Wunderground v.1.15,2013-09-19 22:28:00,
2013-09-19 17:34:00,84.1,72.8,29.80,SSE,148,5.0,10.0,69,0.00,,,0.01,Wunderground v.1.15,2013-09-19 22:34:00,
2013-09-19 17:40:00,83.9,72.6,29.79,SE,134,6.0,6.0,69,0.00,,,0.01,Wunderground v.1.15,2013-09-19 22:40:00,
2013-09-19 17:46:00,83.6,71.9,29.79,ESE,106,5.0,6.0,68,0.00,,,0.01,Wunderground v.1.15,2013-09-19 22:46:00,
2013-09-19 17:52:00,83.3,71.6,29.79,SE,135,5.0,6.0,68,0.00,,,0.01,Wunderground v.1.15,2013-09-19 22:52:00,
2013-09-19 17:58:00,82.9,71.7,29.79,SE,124,5.0,6.0,69,0.00,,,0.01,Wunderground v.1.15,2013-09-19 22:58:00,
2013-09-19 18:04:00,82.7,71.9,29.79,SE,129,4.0,6.0,70,0.00,,,0.01,Wunderground v.1.15,2013-09-19 23:04:00,
2013-09-19 18:10:00,82.7,71.9,29.80,SE,141,3.0,6.0,70,0.00,,,0.01,Wunderground v.1.15,2013-09-19 23:10:00,
2013-09-19 18:16:00,82.6,72.2,29.79,SSE,154,3.0,6.0,71,0.00,,,0.01,Wunderground v.1.15,2013-09-19 23:16:00,
2013-09-19 18:22:00,82.5,71.7,29.79,SE,124,3.0,6.0,70,0.00,,,0.01,Wunderground v.1.15,2013-09-19 23:22:00,
2013-09-19 18:28:00,82.5,72.1,29.79,SE,129,2.0,6.0,71,0.00,,,0.01,Wunderground v.1.15,2013-09-19 23:28:00,
2013-09-19 18:34:00,82.5,72.1,29.79,ESE,120,1.0,6.0,71,0.00,,,0.01,Wunderground v.1.15,2013-09-19 23:34:00,
2013-09-19 18:40:00,82.4,72.5,29.79,ESE,103,1.0,1.0,72,0.00,,,0.01,Wunderground v.1.15,2013-09-19 23:40:00,
2013-09-19 18:46:00,82.2,72.3,29.79,ESE,120,1.0,6.0,72,0.00,,,0.01,Wunderground v.1.15,2013-09-19 23:46:00,
2013-09-19 18:52:00,82.0,72.5,29.79,ESE,107,1.0,6.0,73,0.00,,,0.01,Wunderground v.1.15,2013-09-19 23:52:00,
2013-09-19 18:58:00,81.8,72.7,29.80,SE,131,1.0,6.0,74,0.00,,,0.01,Wunderground v.1.15,2013-09-19 23:58:00,
2013-09-19 19:04:00,81.6,72.5,29.80,SE,129,1.0,6.0,74,0.00,,,0.01,Wunderground v.1.15,2013-09-20 00:04:00,
2013-09-19 19:10:00,81.5,72.4,29.80,SE,135,2.0,6.0,74,0.00,,,0.01,Wunderground v.1.15,2013-09-20 00:10:00,
2013-09-19 19:16:00,81.3,72.6,29.80,SE,143,3.0,6.0,75,0.00,,,0.01,Wunderground v.1.15,2013-09-20 00:16:00,
2013-09-19 19:22:00,81.1,72.0,29.80,South,181,3.0,6.0,74,0.00,,,0.01,Wunderground v.1.15,2013-09-20 00:22:00,
2013-09-19 19:28:00,81.2,71.7,29.80,SE,141,3.0,6.0,73,0.00,,,0.01,Wunderground v.1.15,2013-09-20 00:28:00,
2013-09-19 19:34:00,81.1,71.6,29.80,SE,128,3.0,6.0,73,0.00,,,0.01,Wunderground v.1.15,2013-09-20 00:34:00,
2013-09-19 19:40:00,81.0,71.5,29.81,SE,124,4.0,9.0,73,0.00,,,0.01,Wunderground v.1.15,2013-09-20 00:40:00,
2013-09-19 19:46:00,80.3,71.6,29.81,South,172,7.0,9.0,75,0.00,,,0.01,Wunderground v.1.15,2013-09-20 00:46:00,
2013-09-19 19:52:00,79.8,71.6,29.81,ESE,121,5.0,6.0,76,0.00,,,0.01,Wunderground v.1.15,2013-09-20 00:52:00,
2013-09-19 19:58:00,79.4,71.2,29.81,SSE,150,4.0,6.0,76,0.00,,,0.01,Wunderground v.1.15,2013-09-20 00:58:00,
2013-09-19 20:08:00,78.9,71.1,29.81,SSE,148,5.0,7.0,77,0.00,,,0.01,Wunderground v.1.15,2013-09-20 01:08:00,
2013-09-19 20:14:00,78.6,71.2,29.81,South,186,5.0,7.0,78,0.00,,,0.01,Wunderground v.1.15,2013-09-20 01:14:00,
2013-09-19 20:20:00,78.4,71.0,29.81,ESE,123,5.0,5.0,78,0.00,,,0.01,Wunderground v.1.15,2013-09-20 01:20:00,
2013-09-19 20:26:00,78.2,71.2,29.81,South,191,5.0,6.0,79,0.00,,,0.01,Wunderground v.1.15,2013-09-20 01:26:00,
2013-09-19 20:32:00,77.9,71.2,29.82,SE,141,3.0,6.0,80,0.00,,,0.01,Wunderground v.1.15,2013-09-20 01:32:00,
2013-09-19 20:38:00,77.7,71.0,29.82,SE,134,2.0,6.0,80,0.00,,,0.01,Wunderground v.1.15,2013-09-20 01:38:00,
2013-09-19 20:44:00,77.7,71.0,29.82,SSE,162,2.0,6.0,80,0.00,,,0.01,Wunderground v.1.15,2013-09-20 01:44:00,
2013-09-19 20:50:00,77.6,70.6,29.83,SE,141,3.0,8.0,79,0.00,,,0.01,Wunderground v.1.15,2013-09-20 01:50:00,
2013-09-19 20:56:00,77.7,70.3,29.83,SE,132,5.0,8.0,78,0.00,,,0.01,Wunderground v.1.15,2013-09-20 01:56:00,
2013-09-19 21:02:00,77.5,70.5,29.83,SSE,152,5.0,6.0,79,0.00,,,0.01,Wunderground v.1.15,2013-09-20 02:02:00,
2013-09-19 21:08:00,77.3,70.6,29.83,SE,145,5.0,6.0,80,0.00,,,0.01,Wunderground v.1.15,2013-09-20 02:08:00,
2013-09-19 21:14:00,77.0,70.7,29.83,SE,141,5.0,8.0,81,0.00,,,0.01,Wunderground v.1.15,2013-09-20 02:14:00,
2013-09-19 21:20:00,76.9,71.0,29.83,East,101,5.0,6.0,82,0.00,,,0.01,Wunderground v.1.15,2013-09-20 02:20:00,
2013-09-19 21:26:00,76.8,70.9,29.84,SW,219,5.0,6.0,82,0.00,,,0.01,Wunderground v.1.15,2013-09-20 02:26:00,
2013-09-19 21:32:00,76.6,71.0,29.84,SSE,153,4.0,6.0,83,0.00,,,0.01,Wunderground v.1.15,2013-09-20 02:32:00,
2013-09-19 21:38:00,76.5,71.3,29.84,SE,127,4.0,7.0,84,0.00,,,0.01,Wunderground v.1.15,2013-09-20 02:38:00,
2013-09-19 21:44:00,76.4,71.2,29.84,ESE,121,4.0,7.0,84,0.00,,,0.01,Wunderground v.1.15,2013-09-20 02:44:00,
2013-09-19 21:50:00,76.3,71.5,29.84,South,170,4.0,6.0,85,0.00,,,0.01,Wunderground v.1.15,2013-09-20 02:50:00,
2013-09-19 21:56:00,76.3,71.5,29.84,SE,143,5.0,9.0,85,0.00,,,0.01,Wunderground v.1.15,2013-09-20 02:56:00,
2013-09-19 22:02:00,76.3,71.8,29.84,South,176,6.0,6.0,86,0.00,,,0.01,Wunderground v.1.15,2013-09-20 03:02:00,
2013-09-19 22:08:00,76.2,71.7,29.84,South,176,6.0,8.0,86,0.00,,,0.01,Wunderground v.1.15,2013-09-20 03:08:00,
2013-09-19 22:14:00,76.1,71.9,29.84,SE,134,6.0,10.0,87,0.00,,,0.01,Wunderground v.1.15,2013-09-20 03:14:00,
2013-09-19 22:20:00,76.0,71.8,29.84,SSE,149,6.0,6.0,87,0.00,,,0.01,Wunderground v.1.15,2013-09-20 03:20:00,
2013-09-19 22:26:00,76.0,72.2,29.84,SE,131,6.0,8.0,88,0.00,,,0.01,Wunderground v.1.15,2013-09-20 03:26:00,
2013-09-19 22:32:00,75.9,72.1,29.84,SE,127,6.0,8.0,88,0.00,,,0.01,Wunderground v.1.15,2013-09-20 03:32:00,
2013-09-19 22:38:00,75.9,72.1,29.84,SSE,155,6.0,8.0,88,0.00,,,0.01,Wunderground v.1.15,2013-09-20 03:38:00,
2013-09-19 22:44:00,75.9,72.4,29.84,SSE,162,6.0,8.0,89,0.00,,,0.01,Wunderground v.1.15,2013-09-20 03:44:00,
2013-09-19 22:50:00,75.7,72.2,29.84,SE,124,6.0,7.0,89,0.00,,,0.01,Wunderground v.1.15,2013-09-20 03:50:00,
2013-09-19 22:56:00,75.7,72.6,29.84,SSE,155,7.0,7.0,90,0.00,,,0.01,Wunderground v.1.15,2013-09-20 03:56:00,
2013-09-19 23:02:00,75.6,72.5,29.84,SSE,165,7.0,7.0,90,0.00,,,0.01,Wunderground v.1.15,2013-09-20 04:02:00,
2013-09-19 23:04:00,75.6,72.8,29.84,SSE,153,7.0,9.0,91,0.00,,,0.01,Wunderground v.1.15,2013-09-20 04:04:00,
2013-09-19 23:06:00,75.6,72.8,29.84,SSW,193,7.0,9.0,91,0.00,,,0.01,Wunderground v.1.15,2013-09-20 04:06:00,
2013-09-19 23:12:00,75.7,72.9,29.83,SE,129,8.0,12.0,91,0.00,,,0.01,Wunderground v.1.15,2013-09-20 04:12:00,
2013-09-19 23:14:00,75.7,72.9,29.84,South,181,8.0,12.0,91,0.00,,,0.01,Wunderground v.1.15,2013-09-20 04:14:00,
2013-09-19 23:20:00,75.8,73.0,29.83,South,173,8.0,9.0,91,0.00,,,0.01,Wunderground v.1.15,2013-09-20 04:20:00,
2013-09-19 23:26:00,75.7,72.9,29.83,SSE,166,7.0,9.0,91,0.00,,,0.01,Wunderground v.1.15,2013-09-20 04:26:00,
2013-09-19 23:32:00,75.7,72.9,29.83,SE,141,7.0,7.0,91,0.00,,,0.01,Wunderground v.1.15,2013-09-20 04:32:00,
2013-09-19 23:38:00,75.6,72.8,29.83,SE,130,7.0,11.0,91,0.00,,,0.01,Wunderground v.1.15,2013-09-20 04:38:00,
2013-09-19 23:44:00,75.5,73.0,29.83,SSE,160,7.0,10.0,92,0.00,,,0.01,Wunderground v.1.15,2013-09-20 04:44:00,
2013-09-19 23:50:00,75.5,73.0,29.83,SSE,154,7.0,11.0,92,0.00,,,0.01,Wunderground v.1.15,2013-09-20 04:50:00,
2013-09-19 23:56:00,75.5,73.0,29.83,South,169,9.0,11.0,92,0.00,,,0.01,Wunderground v.1.15,2013-09-20 04:56:00,